Simultaneous Nadir Overpasses (SNOs) Predictions

Prediction of SNOs between GOES-17 and LANDSAT-8 Satellite Orbit:

Table of predicted SNOs for the next 14.0 days since TLE Epoch: 8/5/2023
Index Date Time (GOES-17) GOES-17 Lat,Lon LANDSAT-8 Lat,Lon Distance(km) Time Diff (sec)
1 08/05/2023 05:27:51 0.00,-104.70 -0.80,-108.48 429.05 80
2 08/07/2023 05:15:40 0.00,-104.71 -0.15,-105.52 92.38 80
3 08/09/2023 05:00:49 0.00,-104.71 0.44,-102.56 244.34 80
4 08/09/2023 17:22:04 -0.00,-104.73 0.62,-107.72 339.88 80
5 08/11/2023 17:09:52 -0.00,-104.73 -0.00,-104.75 3.13 80
6 08/13/2023 17:00:20 0.00,-104.73 -0.64,-101.79 333.96 80
7 08/14/2023 05:21:44 0.00,-104.71 -0.47,-106.98 257.74 80
8 08/16/2023 05:06:51 -0.00,-104.71 0.13,-104.01 79.75 80
9 08/18/2023 04:54:38 -0.01,-104.72 0.75,-101.04 417.67 80
10 08/18/2023 17:15:54 0.00,-104.73 0.30,-106.21 166.98 80
